Year,Month,Day,Hour,Minute,Value (Times are PST for temperature in C)
2012,02,29,00,00,4.00
2012,02,29,00,01,3.90
2012,02,29,00,02,3.90
2012,02,29,00,03,4.00
2012,02,29,00,04,4.00
2012,02,29,00,05,4.00
2012,02,29,00,06,4.10
2012,02,29,00,07,4.10
2012,02,29,00,08,4.10
2012,02,29,00,09,4.10
2012,02,29,00,10,4.20
2012,02,29,00,11,4.20
2012,02,29,00,12,4.20
2012,02,29,00,13,4.20
2012,02,29,00,14,4.20
2012,02,29,00,15,4.20
2012,02,29,00,16,4.20
2012,02,29,00,17,4.20
2012,02,29,00,18,4.20
2012,02,29,00,19,4.20
2012,02,29,00,20,4.20
2012,02,29,00,21,4.20
2012,02,29,00,22,4.20
2012,02,29,00,23,4.20
2012,02,29,00,24,4.20
2012,02,29,00,25,4.20
2012,02,29,00,26,4.20
2012,02,29,00,27,4.30
2012,02,29,00,28,4.30
2012,02,29,00,29,4.30
2012,02,29,00,30,4.30
2012,02,29,00,31,4.30
2012,02,29,00,32,4.30
2012,02,29,00,33,4.30
2012,02,29,00,34,4.40
2012,02,29,00,35,4.40
2012,02,29,00,36,4.40
2012,02,29,00,37,4.40
2012,02,29,00,38,4.40
2012,02,29,00,39,4.40
2012,02,29,00,40,4.40
2012,02,29,00,41,4.40
2012,02,29,00,42,4.40
2012,02,29,00,43,4.40
2012,02,29,00,44,4.40
2012,02,29,00,45,4.40
2012,02,29,00,46,4.40
2012,02,29,00,47,4.40
2012,02,29,00,48,4.40
2012,02,29,00,49,4.40
2012,02,29,00,50,4.40
2012,02,29,00,51,4.30
2012,02,29,00,52,4.30
2012,02,29,00,53,4.30
2012,02,29,00,54,4.30
2012,02,29,00,55,4.30
2012,02,29,00,56,4.30
2012,02,29,00,57,4.40
2012,02,29,00,58,4.30
2012,02,29,00,59,4.30
2012,02,29,01,00,4.30
2012,02,29,01,01,4.40
2012,02,29,01,02,4.40
2012,02,29,01,03,4.40
2012,02,29,01,04,4.40
2012,02,29,01,05,4.40
2012,02,29,01,06,4.40
2012,02,29,01,07,4.40
2012,02,29,01,08,4.40
2012,02,29,01,09,4.40
2012,02,29,01,10,4.40
2012,02,29,01,11,4.40
2012,02,29,01,12,4.40
2012,02,29,01,13,4.40
2012,02,29,01,14,4.30
2012,02,29,01,15,4.30
2012,02,29,01,16,4.30
2012,02,29,01,17,4.30
2012,02,29,01,18,4.30
2012,02,29,01,19,4.20
2012,02,29,01,20,4.20
2012,02,29,01,21,4.20
2012,02,29,01,22,4.20
2012,02,29,01,23,4.20
2012,02,29,01,24,4.20
2012,02,29,01,25,4.20
2012,02,29,01,26,4.20
2012,02,29,01,27,4.20
2012,02,29,01,28,4.10
2012,02,29,01,29,4.10
2012,02,29,01,30,4.10
2012,02,29,01,31,4.10
2012,02,29,01,32,4.10
2012,02,29,01,33,4.10
2012,02,29,01,34,4.10
2012,02,29,01,35,4.10
2012,02,29,01,36,4.10
2012,02,29,01,37,4.10
2012,02,29,01,38,4.10
2012,02,29,01,39,4.10
2012,02,29,01,40,4.10
2012,02,29,01,41,4.10
2012,02,29,01,42,4.10
2012,02,29,01,43,4.10
2012,02,29,01,44,4.10
2012,02,29,01,45,4.10
2012,02,29,01,46,4.10
2012,02,29,01,47,4.10
2012,02,29,01,48,4.10
2012,02,29,01,49,4.10
2012,02,29,01,50,4.10
2012,02,29,01,51,4.10
2012,02,29,01,52,4.10
2012,02,29,01,53,4.10
2012,02,29,01,54,4.10
2012,02,29,01,55,4.10
2012,02,29,01,56,4.20
2012,02,29,01,57,4.20
2012,02,29,01,58,4.20
2012,02,29,01,59,4.20
2012,02,29,02,00,4.20
2012,02,29,02,01,4.20
2012,02,29,02,02,4.20
2012,02,29,02,03,4.20
2012,02,29,02,04,4.20
2012,02,29,02,05,4.20
2012,02,29,02,06,4.20
2012,02,29,02,07,4.20
2012,02,29,02,08,4.20
2012,02,29,02,09,4.20
2012,02,29,02,10,4.20
2012,02,29,02,11,4.20
2012,02,29,02,12,4.20
2012,02,29,02,13,4.20
2012,02,29,02,14,4.20
2012,02,29,02,15,4.20
2012,02,29,02,16,4.20
2012,02,29,02,17,4.20
2012,02,29,02,18,4.20
2012,02,29,02,19,4.20
2012,02,29,02,20,4.20
2012,02,29,02,21,4.10
2012,02,29,02,22,4.10
2012,02,29,02,23,4.10
2012,02,29,02,24,4.10
2012,02,29,02,25,4.10
2012,02,29,02,26,4.10
2012,02,29,02,27,4.10
2012,02,29,02,28,4.10
2012,02,29,02,29,4.00
2012,02,29,02,30,4.00
2012,02,29,02,31,4.00
2012,02,29,02,32,4.00
2012,02,29,02,33,4.00
2012,02,29,02,34,4.00
2012,02,29,02,35,3.90
2012,02,29,02,36,4.00
2012,02,29,02,37,3.90
2012,02,29,02,38,3.90
2012,02,29,02,39,3.90
2012,02,29,02,40,3.90
2012,02,29,02,41,3.90
2012,02,29,02,42,3.90
2012,02,29,02,43,3.90
2012,02,29,02,44,3.90
2012,02,29,02,45,3.90
2012,02,29,02,46,3.90
2012,02,29,02,47,3.90
2012,02,29,02,48,3.90
2012,02,29,02,49,3.90
2012,02,29,02,50,3.90
2012,02,29,02,51,3.90
2012,02,29,02,52,3.90
2012,02,29,02,53,3.90
2012,02,29,02,54,3.90
2012,02,29,02,55,3.90
2012,02,29,02,56,3.90
2012,02,29,02,57,3.90
2012,02,29,02,58,3.90
2012,02,29,02,59,3.90
2012,02,29,03,00,4.00
2012,02,29,03,01,4.00
2012,02,29,03,02,4.00
2012,02,29,03,03,4.00
2012,02,29,03,04,4.00
2012,02,29,03,05,4.00
2012,02,29,03,06,4.00
2012,02,29,03,07,4.00
2012,02,29,03,08,4.00
2012,02,29,03,09,3.90
2012,02,29,03,10,3.90
2012,02,29,03,11,4.00
2012,02,29,03,12,4.00
2012,02,29,03,13,4.00
2012,02,29,03,14,4.00
2012,02,29,03,15,4.00
2012,02,29,03,16,4.00
2012,02,29,03,17,4.00
2012,02,29,03,18,4.00
2012,02,29,03,19,4.00
2012,02,29,03,20,4.00
2012,02,29,03,21,4.00
2012,02,29,03,22,4.00
2012,02,29,03,23,4.00
2012,02,29,03,24,4.00
2012,02,29,03,25,4.00
2012,02,29,03,26,4.00
2012,02,29,03,27,4.00
2012,02,29,03,28,4.00
2012,02,29,03,29,4.00
2012,02,29,03,30,4.00
2012,02,29,03,31,4.00
2012,02,29,03,32,3.90
2012,02,29,03,33,3.90
2012,02,29,03,34,3.90
2012,02,29,03,35,3.90
2012,02,29,03,36,3.90
2012,02,29,03,37,3.90
2012,02,29,03,38,3.80
2012,02,29,03,39,3.80
2012,02,29,03,40,3.80
2012,02,29,03,41,3.80
2012,02,29,03,42,3.80
2012,02,29,03,43,3.80
2012,02,29,03,44,3.70
2012,02,29,03,45,3.70
2012,02,29,03,46,3.70
2012,02,29,03,47,3.70
2012,02,29,03,48,3.70
2012,02,29,03,49,3.70
2012,02,29,03,50,3.70
2012,02,29,03,51,3.70
2012,02,29,03,52,3.70
2012,02,29,03,53,3.70
2012,02,29,03,54,3.60
2012,02,29,03,55,3.60
2012,02,29,03,56,3.60
2012,02,29,03,57,3.60
2012,02,29,03,58,3.50
2012,02,29,03,59,3.50
2012,02,29,04,00,3.50
2012,02,29,04,01,3.50
2012,02,29,04,02,3.50
2012,02,29,04,03,3.50
2012,02,29,04,04,3.50
2012,02,29,04,05,3.50
2012,02,29,04,06,3.50
2012,02,29,04,07,3.50
2012,02,29,04,08,3.40
2012,02,29,04,09,3.40
2012,02,29,04,10,3.40
2012,02,29,04,11,3.40
2012,02,29,04,12,3.40
2012,02,29,04,13,3.40
2012,02,29,04,14,3.40
2012,02,29,04,15,3.40
2012,02,29,04,16,3.40
2012,02,29,04,17,3.40
2012,02,29,04,18,3.40
2012,02,29,04,19,3.40
2012,02,29,04,20,3.30
2012,02,29,04,21,3.30
2012,02,29,04,22,3.30
2012,02,29,04,23,3.30
2012,02,29,04,24,3.30
2012,02,29,04,25,3.30
2012,02,29,04,26,3.30
2012,02,29,04,27,3.30
2012,02,29,04,28,3.30
2012,02,29,04,29,3.30
2012,02,29,04,30,3.30
2012,02,29,04,31,3.30
2012,02,29,04,32,3.30
2012,02,29,04,33,3.30
2012,02,29,04,34,3.30
2012,02,29,04,35,3.30
2012,02,29,04,36,3.30
2012,02,29,04,37,3.30
2012,02,29,04,38,3.30
2012,02,29,04,39,3.20
2012,02,29,04,40,3.20
2012,02,29,04,41,3.20
2012,02,29,04,42,3.10
2012,02,29,04,43,3.10
2012,02,29,04,44,3.10
2012,02,29,04,45,3.10
2012,02,29,04,46,3.10
2012,02,29,04,47,3.10
2012,02,29,04,48,3.00
2012,02,29,04,49,3.00
2012,02,29,04,50,3.00
2012,02,29,04,51,3.00
2012,02,29,04,52,2.90
2012,02,29,04,53,2.90
2012,02,29,04,54,2.90
2012,02,29,04,55,2.90
2012,02,29,04,56,2.90
2012,02,29,04,57,2.90
2012,02,29,04,58,2.90
2012,02,29,04,59,2.80
2012,02,29,05,00,2.80
2012,02,29,05,01,2.80
2012,02,29,05,02,2.80
2012,02,29,05,03,2.80
2012,02,29,05,04,2.70
2012,02,29,05,05,2.70
2012,02,29,05,06,2.70
2012,02,29,05,07,2.70
2012,02,29,05,08,2.70
2012,02,29,05,09,2.60
2012,02,29,05,10,2.60
2012,02,29,05,11,2.60
2012,02,29,05,12,2.60
2012,02,29,05,13,2.60
2012,02,29,05,14,2.60
2012,02,29,05,15,2.60
2012,02,29,05,16,2.50
2012,02,29,05,17,2.50
2012,02,29,05,18,2.50
2012,02,29,05,19,2.50
2012,02,29,05,20,2.50
2012,02,29,05,21,2.50
2012,02,29,05,22,2.40
2012,02,29,05,23,2.40
2012,02,29,05,24,2.40
2012,02,29,05,25,2.40
2012,02,29,05,26,2.40
2012,02,29,05,27,2.40
2012,02,29,05,28,2.40
2012,02,29,05,29,2.40
2012,02,29,05,30,2.40
2012,02,29,05,31,2.50
2012,02,29,05,32,2.50
2012,02,29,05,33,2.50
2012,02,29,05,34,2.50
2012,02,29,05,35,2.50
2012,02,29,05,36,2.50
2012,02,29,05,37,2.50
2012,02,29,05,38,2.50
2012,02,29,05,39,2.50
2012,02,29,05,40,2.50
2012,02,29,05,41,2.50
2012,02,29,05,42,2.50
2012,02,29,05,43,2.50
2012,02,29,05,44,2.50
2012,02,29,05,45,2.40
2012,02,29,05,46,2.40
2012,02,29,05,47,2.40
2012,02,29,05,48,2.40
2012,02,29,05,49,2.40
2012,02,29,05,50,2.40
2012,02,29,05,51,2.40
2012,02,29,05,52,2.40
2012,02,29,05,53,2.30
2012,02,29,05,54,2.40
2012,02,29,05,55,2.30
2012,02,29,05,56,2.40
2012,02,29,05,57,2.30
2012,02,29,05,58,2.30
2012,02,29,05,59,2.40
2012,02,29,06,00,2.40
2012,02,29,06,01,2.40
2012,02,29,06,02,2.40
2012,02,29,06,03,2.50
2012,02,29,06,04,2.50
2012,02,29,06,05,2.60
2012,02,29,06,06,2.60
2012,02,29,06,07,2.70
2012,02,29,06,08,2.70
2012,02,29,06,09,2.80
2012,02,29,06,10,2.80
2012,02,29,06,11,2.80
2012,02,29,06,12,2.80
2012,02,29,06,13,2.80
2012,02,29,06,14,2.80
2012,02,29,06,15,2.80
2012,02,29,06,16,2.90
2012,02,29,06,17,2.90
2012,02,29,06,18,2.90
2012,02,29,06,19,2.90
2012,02,29,06,20,2.90
2012,02,29,06,21,2.90
2012,02,29,06,22,2.90
2012,02,29,06,23,2.90
2012,02,29,06,24,2.90
2012,02,29,06,25,2.90
2012,02,29,06,26,2.90
2012,02,29,06,27,2.90
2012,02,29,06,28,2.90
2012,02,29,06,29,2.90
2012,02,29,06,30,2.90
2012,02,29,06,31,2.90
2012,02,29,06,32,2.90
2012,02,29,06,33,2.90
2012,02,29,06,34,2.90
2012,02,29,06,35,2.90
2012,02,29,06,36,2.90
2012,02,29,06,37,2.90
2012,02,29,06,38,2.90
2012,02,29,06,39,2.90
2012,02,29,06,40,2.90
2012,02,29,06,41,2.90
2012,02,29,06,42,2.90
2012,02,29,06,43,2.90
2012,02,29,06,44,2.90
2012,02,29,06,45,2.90
2012,02,29,06,46,2.90
2012,02,29,06,47,2.90
2012,02,29,06,48,2.90
2012,02,29,06,49,2.90
2012,02,29,06,50,2.90
2012,02,29,06,51,2.90
2012,02,29,06,52,2.90
2012,02,29,06,53,2.90
2012,02,29,06,54,2.90
2012,02,29,06,55,2.90
2012,02,29,06,56,2.90
2012,02,29,06,57,2.90
2012,02,29,06,58,2.90
2012,02,29,06,59,2.90
2012,02,29,07,00,2.90
2012,02,29,07,01,2.90
2012,02,29,07,02,2.90
2012,02,29,07,03,2.90
2012,02,29,07,04,3.00
2012,02,29,07,05,3.00
2012,02,29,07,06,3.00
2012,02,29,07,07,3.00
2012,02,29,07,08,3.00
2012,02,29,07,09,3.00
2012,02,29,07,10,3.00
2012,02,29,07,11,3.10
2012,02,29,07,12,3.10
2012,02,29,07,13,3.10
2012,02,29,07,14,3.10
2012,02,29,07,15,3.10
2012,02,29,07,16,3.10
2012,02,29,07,17,3.10
2012,02,29,07,18,3.10
2012,02,29,07,19,3.10
2012,02,29,07,20,3.10
2012,02,29,07,21,3.10
2012,02,29,07,22,3.10
2012,02,29,07,23,3.10
2012,02,29,07,24,3.10
2012,02,29,07,25,3.10
2012,02,29,07,26,3.10
2012,02,29,07,27,3.10
2012,02,29,07,28,3.20
2012,02,29,07,29,3.20
2012,02,29,07,30,3.20
2012,02,29,07,31,3.20
2012,02,29,07,32,3.20
2012,02,29,07,33,3.20
2012,02,29,07,34,3.20
2012,02,29,07,35,3.20
2012,02,29,07,36,3.20
2012,02,29,07,37,3.20
2012,02,29,07,38,3.20
2012,02,29,07,39,3.20
2012,02,29,07,40,3.20
2012,02,29,07,41,3.20
2012,02,29,07,42,3.20
2012,02,29,07,43,3.20
2012,02,29,07,44,3.20
2012,02,29,07,45,3.20
2012,02,29,07,46,3.20
2012,02,29,07,47,3.20
2012,02,29,07,48,3.30
2012,02,29,07,49,3.30
2012,02,29,07,50,3.30
2012,02,29,07,51,3.30
2012,02,29,07,52,3.30
2012,02,29,07,53,3.30
2012,02,29,07,54,3.30
2012,02,29,07,55,3.30
2012,02,29,07,56,3.30
2012,02,29,07,57,3.30
2012,02,29,07,58,3.30
2012,02,29,07,59,3.30
2012,02,29,08,00,3.30
2012,02,29,08,01,3.30
2012,02,29,08,02,3.30
2012,02,29,08,03,3.30
2012,02,29,08,04,3.30
2012,02,29,08,05,3.30
2012,02,29,08,06,3.30
2012,02,29,08,07,3.30
2012,02,29,08,08,3.30
2012,02,29,08,09,3.40
2012,02,29,08,10,3.40
2012,02,29,08,11,3.40
2012,02,29,08,12,3.40
2012,02,29,08,13,3.40
2012,02,29,08,14,3.40
2012,02,29,08,15,3.40
2012,02,29,08,16,3.40
2012,02,29,08,17,3.40
2012,02,29,08,18,3.40
2012,02,29,08,19,3.40
2012,02,29,08,20,3.40
2012,02,29,08,21,3.40
2012,02,29,08,22,3.40
2012,02,29,08,23,3.40
2012,02,29,08,24,3.40
2012,02,29,08,25,3.40
2012,02,29,08,26,3.40
2012,02,29,08,27,3.40
2012,02,29,08,28,3.50
2012,02,29,08,29,3.50
2012,02,29,08,30,3.50
2012,02,29,08,31,3.50
2012,02,29,08,32,3.50
2012,02,29,08,33,3.50
2012,02,29,08,34,3.50
2012,02,29,08,35,3.50
2012,02,29,08,36,3.50
2012,02,29,08,37,3.50
2012,02,29,08,38,3.50
2012,02,29,08,39,3.50
2012,02,29,08,40,3.50
2012,02,29,08,41,3.60
2012,02,29,08,42,3.60
2012,02,29,08,43,3.60
2012,02,29,08,44,3.60
2012,02,29,08,45,3.60
2012,02,29,08,46,3.60
2012,02,29,08,47,3.60
2012,02,29,08,48,3.60
2012,02,29,08,49,3.60
2012,02,29,08,50,3.60
2012,02,29,08,51,3.60
2012,02,29,08,52,3.60
2012,02,29,08,53,3.70
2012,02,29,08,54,3.70
2012,02,29,08,55,3.70
2012,02,29,08,56,3.70
2012,02,29,08,57,3.70
2012,02,29,08,58,3.70
2012,02,29,08,59,3.70
2012,02,29,09,00,3.70
2012,02,29,09,01,3.70
2012,02,29,09,02,3.70
2012,02,29,09,03,3.70
2012,02,29,09,04,3.70
2012,02,29,09,05,3.70
2012,02,29,09,06,3.70
2012,02,29,09,07,3.70
2012,02,29,09,08,3.70
2012,02,29,09,09,3.70
2012,02,29,09,10,3.70
2012,02,29,09,11,3.70
2012,02,29,09,12,3.70
2012,02,29,09,13,3.70
2012,02,29,09,14,3.70
2012,02,29,09,15,3.70
2012,02,29,09,16,3.70
2012,02,29,09,17,3.70
2012,02,29,09,18,3.70
2012,02,29,09,19,3.70
2012,02,29,09,20,3.70
2012,02,29,09,21,3.70
2012,02,29,09,22,3.70
2012,02,29,09,23,3.70
2012,02,29,09,24,3.70
2012,02,29,09,25,3.70
2012,02,29,09,26,3.70
2012,02,29,09,27,3.70
2012,02,29,09,28,3.70
2012,02,29,09,29,3.70
2012,02,29,09,30,3.70
2012,02,29,09,31,3.70
2012,02,29,09,32,3.70
2012,02,29,09,33,3.70
2012,02,29,09,34,3.70
2012,02,29,09,35,3.70
2012,02,29,09,36,3.70
2012,02,29,09,37,3.70
2012,02,29,09,38,3.70
2012,02,29,09,39,3.70
2012,02,29,09,40,3.70
2012,02,29,09,41,3.70
2012,02,29,09,42,3.60
2012,02,29,09,43,3.60
2012,02,29,09,44,3.60
2012,02,29,09,45,3.60
2012,02,29,09,46,3.60
2012,02,29,09,47,3.60
2012,02,29,09,48,3.60
2012,02,29,09,49,3.50
2012,02,29,09,50,3.40
2012,02,29,09,51,3.30
2012,02,29,09,52,3.20
2012,02,29,09,53,3.20
2012,02,29,09,54,3.10
2012,02,29,09,55,3.10
2012,02,29,09,56,3.00
2012,02,29,09,57,3.00
2012,02,29,09,58,3.00
2012,02,29,09,59,3.00
2012,02,29,10,00,2.90
2012,02,29,10,01,2.90
2012,02,29,10,02,2.90
2012,02,29,10,03,2.80
2012,02,29,10,04,2.80
2012,02,29,10,05,2.80
2012,02,29,10,06,2.80
2012,02,29,10,07,2.70
2012,02,29,10,08,2.70
2012,02,29,10,09,2.70
2012,02,29,10,10,2.70
2012,02,29,10,11,2.70
2012,02,29,10,12,2.70
2012,02,29,10,13,2.70
2012,02,29,10,14,2.70
2012,02,29,10,15,2.70
2012,02,29,10,16,2.70
2012,02,29,10,17,2.70
2012,02,29,10,18,2.70
2012,02,29,10,19,2.70
2012,02,29,10,20,2.70
2012,02,29,10,21,2.70
2012,02,29,10,22,2.70
2012,02,29,10,23,2.70
2012,02,29,10,24,2.60
2012,02,29,10,25,2.60
2012,02,29,10,26,2.50
2012,02,29,10,27,2.50
2012,02,29,10,28,2.40
2012,02,29,10,29,2.40
2012,02,29,10,30,2.30
2012,02,29,10,31,2.30
2012,02,29,10,32,2.30
2012,02,29,10,33,2.20
2012,02,29,10,34,2.20
2012,02,29,10,35,2.20
2012,02,29,10,36,2.20
2012,02,29,10,37,2.10
2012,02,29,10,38,2.10
2012,02,29,10,39,2.10
2012,02,29,10,40,2.10
2012,02,29,10,41,2.10
2012,02,29,10,42,2.00
2012,02,29,10,43,2.00
2012,02,29,10,44,2.00
2012,02,29,10,45,1.90
2012,02,29,10,46,1.90
2012,02,29,10,47,1.90
2012,02,29,10,48,1.90
2012,02,29,10,49,1.90
2012,02,29,10,50,1.90
2012,02,29,10,51,1.90
2012,02,29,10,52,1.90
2012,02,29,10,53,1.90
2012,02,29,10,54,2.00
2012,02,29,10,55,1.90
2012,02,29,10,56,2.00
2012,02,29,10,57,2.00
2012,02,29,10,58,2.00
2012,02,29,10,59,2.00
2012,02,29,11,00,2.00
2012,02,29,11,01,2.00
2012,02,29,11,02,2.00
2012,02,29,11,03,2.00
2012,02,29,11,04,2.00
2012,02,29,11,05,2.00
2012,02,29,11,06,2.00
2012,02,29,11,07,2.00
2012,02,29,11,08,2.00
2012,02,29,11,09,2.00
2012,02,29,11,10,2.00
2012,02,29,11,11,2.00
2012,02,29,11,12,2.00
2012,02,29,11,13,2.00
2012,02,29,11,14,2.00
2012,02,29,11,15,2.00
2012,02,29,11,16,2.10
2012,02,29,11,17,2.10
2012,02,29,11,18,2.10
2012,02,29,11,19,2.10
2012,02,29,11,20,2.10
2012,02,29,11,21,2.10
2012,02,29,11,22,2.10
2012,02,29,11,23,2.10
2012,02,29,11,24,2.10
2012,02,29,11,25,2.10
2012,02,29,11,26,2.10
2012,02,29,11,27,2.10
2012,02,29,11,28,2.10
2012,02,29,11,29,2.10
2012,02,29,11,30,2.10
2012,02,29,11,31,2.10
2012,02,29,11,32,2.00
2012,02,29,11,33,2.00
2012,02,29,11,34,2.00
2012,02,29,11,35,2.10
2012,02,29,11,36,2.10
2012,02,29,11,37,2.10
2012,02,29,11,38,2.10
2012,02,29,11,39,2.10
2012,02,29,11,40,2.00
2012,02,29,11,41,2.00
2012,02,29,11,42,2.00
2012,02,29,11,43,2.00
2012,02,29,11,44,2.00
2012,02,29,11,45,2.00
2012,02,29,11,46,2.00
2012,02,29,11,47,2.00
2012,02,29,11,48,2.00
2012,02,29,11,49,2.10
2012,02,29,11,50,2.10
2012,02,29,11,51,2.10
2012,02,29,11,52,2.10
2012,02,29,11,53,2.10
2012,02,29,11,54,2.10
2012,02,29,11,55,2.10
2012,02,29,11,56,2.20
2012,02,29,11,57,2.20
2012,02,29,11,58,2.20
2012,02,29,11,59,2.20
2012,02,29,12,00,2.20
2012,02,29,12,01,2.20
2012,02,29,12,02,2.20
2012,02,29,12,03,2.20
2012,02,29,12,04,2.20
2012,02,29,12,05,2.20
2012,02,29,12,06,2.20
2012,02,29,12,07,2.20
2012,02,29,12,08,2.20
2012,02,29,12,09,2.30
2012,02,29,12,10,2.30
2012,02,29,12,11,2.30
2012,02,29,12,12,2.30
2012,02,29,12,13,2.30
2012,02,29,12,14,2.30
2012,02,29,12,15,2.40
2012,02,29,12,16,2.40
2012,02,29,12,17,2.40
2012,02,29,12,18,2.40
2012,02,29,12,19,2.40
2012,02,29,12,20,2.40
2012,02,29,12,21,2.40
2012,02,29,12,22,2.40
2012,02,29,12,23,2.40
2012,02,29,12,24,2.40
2012,02,29,12,25,2.40
2012,02,29,12,26,2.40
2012,02,29,12,27,2.40
2012,02,29,12,28,2.40
2012,02,29,12,29,2.40
2012,02,29,12,30,2.40
2012,02,29,12,31,2.40
2012,02,29,12,32,2.40
2012,02,29,12,33,2.40
2012,02,29,12,34,2.40
2012,02,29,12,35,2.30
2012,02,29,12,36,2.30
2012,02,29,12,37,2.30
2012,02,29,12,38,2.30
2012,02,29,12,39,2.40
2012,02,29,12,40,2.40
2012,02,29,12,41,2.40
2012,02,29,12,42,2.40
2012,02,29,12,43,2.40
2012,02,29,12,44,2.40
2012,02,29,12,45,2.40
2012,02,29,12,46,2.40
2012,02,29,12,47,2.50
2012,02,29,12,48,2.50
2012,02,29,12,49,2.50
2012,02,29,12,50,2.50
2012,02,29,12,51,2.50
2012,02,29,12,52,2.60
2012,02,29,12,53,2.60
2012,02,29,12,54,2.50
2012,02,29,12,55,2.50
2012,02,29,12,56,2.50
2012,02,29,12,57,2.50
2012,02,29,12,58,2.50
2012,02,29,12,59,2.50
2012,02,29,13,00,2.40
2012,02,29,13,01,2.40
2012,02,29,13,02,2.40
2012,02,29,13,03,2.40
2012,02,29,13,04,2.50
2012,02,29,13,05,2.60
2012,02,29,13,06,2.60
2012,02,29,13,07,2.60
2012,02,29,13,08,2.60
2012,02,29,13,09,2.60
2012,02,29,13,10,2.60
2012,02,29,13,11,2.70
2012,02,29,13,12,2.70
2012,02,29,13,13,2.70
2012,02,29,13,14,2.60
2012,02,29,13,15,2.60
2012,02,29,13,16,2.60
2012,02,29,13,17,2.60
2012,02,29,13,18,2.60
2012,02,29,13,19,2.50
2012,02,29,13,20,2.50
2012,02,29,13,21,2.50
2012,02,29,13,22,2.60
2012,02,29,13,23,2.60
2012,02,29,13,24,2.50
2012,02,29,13,25,2.50
2012,02,29,13,26,2.50
2012,02,29,13,27,2.50
2012,02,29,13,28,2.40
2012,02,29,13,29,2.40
2012,02,29,13,30,2.40
2012,02,29,13,31,2.40
2012,02,29,13,32,2.40
2012,02,29,13,33,2.40
2012,02,29,13,34,2.40
2012,02,29,13,35,2.50
2012,02,29,13,36,2.50
2012,02,29,13,37,2.50
2012,02,29,13,38,2.60
2012,02,29,13,39,2.60
2012,02,29,13,40,2.60
2012,02,29,13,41,2.60
2012,02,29,13,42,2.60
2012,02,29,13,43,2.60
2012,02,29,13,44,2.60
2012,02,29,13,45,2.60
2012,02,29,13,46,2.60
2012,02,29,13,47,2.60
2012,02,29,13,48,2.60
2012,02,29,13,49,2.60
2012,02,29,13,50,2.60
2012,02,29,13,51,2.60
2012,02,29,13,52,2.50
2012,02,29,13,53,2.40
2012,02,29,13,54,2.40
2012,02,29,13,55,2.40
2012,02,29,13,56,2.40
2012,02,29,13,57,2.50
2012,02,29,13,58,2.50
2012,02,29,13,59,2.40
2012,02,29,14,00,2.40
2012,02,29,14,01,2.40
2012,02,29,14,02,2.50
2012,02,29,14,03,2.50
2012,02,29,14,04,2.50
2012,02,29,14,05,2.50
2012,02,29,14,06,2.40
2012,02,29,14,07,2.40
2012,02,29,14,08,2.40
2012,02,29,14,09,2.40
2012,02,29,14,10,2.40
2012,02,29,14,11,2.40
2012,02,29,14,12,2.40
2012,02,29,14,13,2.50
2012,02,29,14,14,2.50
2012,02,29,14,15,2.50
2012,02,29,14,16,2.50
2012,02,29,14,17,2.60
2012,02,29,14,18,2.60
2012,02,29,14,19,2.60
2012,02,29,14,20,2.50
2012,02,29,14,21,2.50
2012,02,29,14,22,2.50
2012,02,29,14,23,2.60
2012,02,29,14,24,2.60
2012,02,29,14,25,2.70
2012,02,29,14,26,2.70
2012,02,29,14,27,2.70
2012,02,29,14,28,2.70
2012,02,29,14,29,2.70
2012,02,29,14,30,2.70
2012,02,29,14,31,2.70
2012,02,29,14,32,2.70
2012,02,29,14,33,2.70
2012,02,29,14,34,2.70
2012,02,29,14,35,2.70
2012,02,29,14,36,2.70
2012,02,29,14,37,2.70
2012,02,29,14,38,2.70
2012,02,29,14,39,2.70
2012,02,29,14,40,2.70
2012,02,29,14,41,2.70
2012,02,29,14,42,2.70
2012,02,29,14,43,2.70
2012,02,29,14,44,2.80
2012,02,29,14,45,2.80
2012,02,29,14,46,2.80
2012,02,29,14,47,2.80
2012,02,29,14,48,2.90
2012,02,29,14,49,2.90
2012,02,29,14,50,2.90
2012,02,29,14,51,2.90
2012,02,29,14,52,2.90
2012,02,29,14,53,2.90
2012,02,29,14,54,2.90
2012,02,29,14,55,2.90
2012,02,29,14,56,2.90
2012,02,29,14,57,2.90
2012,02,29,14,58,2.90
2012,02,29,14,59,2.90
2012,02,29,15,00,2.90
2012,02,29,15,01,2.90
2012,02,29,15,02,2.80
2012,02,29,15,03,2.80
2012,02,29,15,04,2.90
2012,02,29,15,05,2.90
2012,02,29,15,06,2.90
2012,02,29,15,07,2.90
2012,02,29,15,08,2.90
2012,02,29,15,09,2.90
2012,02,29,15,10,2.90
2012,02,29,15,11,2.90
2012,02,29,15,12,3.00
2012,02,29,15,13,3.00
2012,02,29,15,14,2.90
2012,02,29,15,15,2.90
2012,02,29,15,16,2.90
2012,02,29,15,17,2.90
2012,02,29,15,18,2.80
2012,02,29,15,19,2.80
2012,02,29,15,20,2.80
2012,02,29,15,21,2.80
2012,02,29,15,22,2.80
2012,02,29,15,23,2.80
2012,02,29,15,24,2.80
2012,02,29,15,25,2.80
2012,02,29,15,26,2.80
2012,02,29,15,27,2.80
2012,02,29,15,28,2.80
2012,02,29,15,29,2.80
2012,02,29,15,30,2.80
2012,02,29,15,31,2.80
2012,02,29,15,32,2.80
2012,02,29,15,33,2.80
2012,02,29,15,34,2.80
2012,02,29,15,35,2.80
2012,02,29,15,36,2.80
2012,02,29,15,37,2.90
2012,02,29,15,38,2.90
2012,02,29,15,39,2.90
2012,02,29,15,40,2.90
2012,02,29,15,41,2.90
2012,02,29,15,42,2.90
2012,02,29,15,43,2.90
2012,02,29,15,44,2.90
2012,02,29,15,45,2.90
2012,02,29,15,46,2.90
2012,02,29,15,47,2.90
2012,02,29,15,48,2.90
2012,02,29,15,49,2.90
2012,02,29,15,50,2.90
2012,02,29,15,51,2.90
2012,02,29,15,52,3.00
2012,02,29,15,53,3.00
2012,02,29,15,54,3.00
2012,02,29,15,55,3.00
2012,02,29,15,56,3.00
2012,02,29,15,57,3.00
2012,02,29,15,58,3.00
2012,02,29,15,59,3.00
2012,02,29,16,00,3.00
2012,02,29,16,01,3.00
2012,02,29,16,02,3.00
2012,02,29,16,03,3.00
2012,02,29,16,04,3.00
2012,02,29,16,05,3.00
2012,02,29,16,06,3.00
2012,02,29,16,07,3.10
2012,02,29,16,08,3.10
2012,02,29,16,09,3.10
2012,02,29,16,10,3.10
2012,02,29,16,11,3.00
2012,02,29,16,12,3.00
2012,02,29,16,13,3.00
2012,02,29,16,14,3.00
2012,02,29,16,15,2.90
2012,02,29,16,16,2.90
2012,02,29,16,17,2.90
2012,02,29,16,18,2.90
2012,02,29,16,19,2.90
2012,02,29,16,20,2.90
2012,02,29,16,21,2.90
2012,02,29,16,22,2.90
2012,02,29,16,23,2.90
2012,02,29,16,24,2.90
2012,02,29,16,25,2.90
2012,02,29,16,26,2.90
2012,02,29,16,27,2.90
2012,02,29,16,28,2.90
2012,02,29,16,29,2.90
2012,02,29,16,30,2.90
2012,02,29,16,31,2.90
2012,02,29,16,32,2.90
2012,02,29,16,33,2.80
2012,02,29,16,34,2.80
2012,02,29,16,35,2.80
2012,02,29,16,36,2.80
2012,02,29,16,37,2.80
2012,02,29,16,38,2.80
2012,02,29,16,39,2.80
2012,02,29,16,40,2.70
2012,02,29,16,41,2.70
2012,02,29,16,42,2.70
2012,02,29,16,43,2.70
2012,02,29,16,44,2.70
2012,02,29,16,45,2.70
2012,02,29,16,46,2.70
2012,02,29,16,47,2.70
2012,02,29,16,48,2.70
2012,02,29,16,49,2.70
2012,02,29,16,50,2.70
2012,02,29,16,51,2.70
2012,02,29,16,52,2.70
2012,02,29,16,53,2.70
2012,02,29,16,54,2.60
2012,02,29,16,55,2.60
2012,02,29,16,56,2.60
2012,02,29,16,57,2.60
2012,02,29,16,58,2.60
2012,02,29,16,59,2.60
2012,02,29,17,00,2.60
2012,02,29,17,01,2.60
2012,02,29,17,02,2.70
2012,02,29,17,03,2.70
2012,02,29,17,04,2.70
2012,02,29,17,05,2.70
2012,02,29,17,06,2.70
2012,02,29,17,07,2.70
2012,02,29,17,08,2.70
2012,02,29,17,09,2.70
2012,02,29,17,10,2.70
2012,02,29,17,11,2.60
2012,02,29,17,12,2.60
2012,02,29,17,13,2.60
2012,02,29,17,14,2.60
2012,02,29,17,15,2.60
2012,02,29,17,16,2.60
2012,02,29,17,17,2.60
2012,02,29,17,18,2.60
2012,02,29,17,19,2.60
2012,02,29,17,20,2.60
2012,02,29,17,21,2.50
2012,02,29,17,22,2.50
2012,02,29,17,23,2.50
2012,02,29,17,24,2.50
2012,02,29,17,25,2.50
2012,02,29,17,26,2.50
2012,02,29,17,27,2.50
2012,02,29,17,28,2.40
2012,02,29,17,29,2.40
2012,02,29,17,30,2.40
2012,02,29,17,31,2.40
2012,02,29,17,32,2.40
2012,02,29,17,33,2.40
2012,02,29,17,34,2.40
2012,02,29,17,35,2.40
2012,02,29,17,36,2.30
2012,02,29,17,37,2.30
2012,02,29,17,38,2.30
2012,02,29,17,39,2.30
2012,02,29,17,40,2.30
2012,02,29,17,41,2.30
2012,02,29,17,42,2.30
2012,02,29,17,43,2.30
2012,02,29,17,44,2.30
2012,02,29,17,45,2.30
2012,02,29,17,46,2.20
2012,02,29,17,47,2.20
2012,02,29,17,48,2.20
2012,02,29,17,49,2.20
2012,02,29,17,50,2.20
2012,02,29,17,51,2.20
2012,02,29,17,52,2.20
2012,02,29,17,53,2.10
2012,02,29,17,54,2.10
2012,02,29,17,55,2.10
2012,02,29,17,56,2.00
2012,02,29,17,57,2.00
2012,02,29,17,58,2.00
2012,02,29,17,59,1.90
2012,02,29,18,00,1.90
2012,02,29,18,01,1.90
2012,02,29,18,02,1.90
2012,02,29,18,03,1.90
2012,02,29,18,04,1.80
2012,02,29,18,05,1.80
2012,02,29,18,06,1.80